Simultaneous Nadir Overpasses (SNOs) Predictions

Prediction of SNOs between NOAA-20 and METOP-B Satellite Orbit:

Table of predicted SNOs for the next 14.0 days since TLE Epoch: 7/6/2025
Index Date (NOAA-20) Time (NOAA-20) Lat,Lon (NOAA-20) SZA (NOAA-20 ) Date (METOP-B) Time (METOP-B) Lat,Lon (METOP-B) SZA (METOP-B ) Distance(km) Time Diff (sec)
1 07/20/2025 00:45:06 74.83, 155.40 54.69 07/20/2025 00:46:13 74.83, 158.06 54.48 77.39 67
2 07/20/2025 01:35:48 -74.74, -37.02 125.42 07/20/2025 01:36:57 -74.72, -34.90 125.61 62.08 69
3 07/20/2025 02:26:30 74.54, 130.83 54.36 07/20/2025 02:27:42 74.47, 131.78 54.20 29.39 72



Historial Predications of SNOs between NOAA-20 and METOP-B
